Weather in Anchorage

United States     61°09′34″N   149°53′02″W
temp.,
°C
wind,
m/s
gust,
m/s
humid.,
%
clouds,
%
prec.,
mm/h
press.,
hPa
HPBL,
m
16 may, sun
sun1601:00+4s129581 0.0 1010101
04:00+5ssw119168 0.1 101140
07:00+5nnw119195 0.0 101182
10:00+6nw1182100 0.0 1012352
13:00+7sw117878 0.1 1012508
16:00+7wsw327431 0.1 1013531
19:00+6sw337212 0.0 1013374
22:00+5sw23765 0.0 101466
17 may, mon
mon1701:00+4sw12825 0.0 101534
04:00+4s11815 0.0 101511
07:00+5ssw00785 0.0 101536
10:00+6sw22745 0.0 1015296
13:00+7sw226915 0.0 1015498
16:00+8ssw226839 0.0 1015386
19:00+8ssw22668 0.0 1014353
22:00+7sw227474 0.0 101421
18 may, tue
tue1801:00+6sw1177100 0.0 101511
04:00+5s117942 0.0 101510
07:00+6n1178100 0.0 101620
10:00+8wnw116920 0.0 1016237
13:00+9sw2264100 0.0 1016487
16:00+8wsw3368100 0.0 1016417
19:00+6sw2380100 0.0 1016169
22:00+4ssw1188100 0.1 101778
19 may, wed
wed1901:00+5nne118497 0.0 101711
04:00+5nne128487 0.0 101810
07:00+6nne22805 0.0 101932
10:00+8nw11675 0.0 1019339
13:00+9wsw23635 0.0 1019690
16:00+7wsw34706 0.0 1018482
19:00+7sw357064 0.0 1018229
22:00+6sw137330 0.0 101890
20 may, thu
thu2001:00+6ssw117214 0.0 101812
04:00+5nne0072100 0.0 101810
07:00+6nne1171100 0.0 101730
10:00+8n1163100 0.0 1016262
13:00+10sw2254100 0.0 1014625
16:00+10s6553100 0.0 1012563
19:00+9sse2261100 0.0 1011450
22:00+7w2378100 0.1 101180